Weather History for Clinton, BC

Change the Weather History Date:

Friday, September 14, 2012

  Actual Average Record
Temperature  
Mean Temperature 57 °F -  
Max Temperature 73 °F 60 °F 85 °F (2013)
Min Temperature 41 °F 36 °F 32 °F (2007)
Degree Days  
Heating Degree Days 8    
Growing Degree Days 7 (Base 50)    
Moisture  
Dew Point 36 °F    
Average Humidity 48    
Maximum Humidity 76    
Minimum Humidity 15    
Precipitation  
Precipitation 0.00 in - - ()
Sea Level Pressure  
Sea Level Pressure 30.10 in    
Wind  
Wind Speed 3 mph ()    
Max Wind Speed 9 mph    
Max Gust Speed -    
Visibility 9.0 miles    
Events      
Averages and records for this station are not official NWS values.
T = Trace of Precipitation, MM = Missing Value Source: Averaged Metar Reports

Daily Weather History Graph

Daily Weather History Graph

Search for Another Location

Airport:

Trip Planner

Search our weather history database for the weather conditions in past years. The results will help you decide how hot, cold, wet, or windy it might be!

Date:

Astronomy

Sep. 14, 2012 Rise Set
Actual Time 6:40 AM PDT 7:21 PM PDT
Civil Twilight 6:07 AM PDT 7:54 PM PDT
Nautical Twilight 5:27 AM PDT 8:34 PM PDT
Astronomical Twilight 4:44 AM PDT 9:16 PM PDT
Moon 5:06 AM PDT (9/14) 6:20 PM PDT (9/14)
Length of Visible Light 13h 47m
Length of Day
12h 40m
Waning Crescent, 2% of the Moon is Illuminated
Sep 14
Waning Crescent
Sep 15
New
Sep 22
First Quarter
Sep 29
Full
Oct 8
Last Quarter

Hourly Weather History & Observations

Time (PDT) Temp. Windchill Dew Point Humidity Pressure Visibility Wind Dir Wind Speed Gust Speed Precip Events Conditions
12:00 AM 46.4 °F - 33.8 °F 62% 30.14 in 9.0 mi SW 2.3 mph - N/A   Clear
1:00 AM 44.6 °F 42.2 °F 33.8 °F 66% 30.13 in 9.0 mi SW 4.6 mph - N/A   Clear
2:00 AM 44 °F - 34 °F 58% 30.13 in 9 mi South 2.3 mph - -  
2:00 AM 44.6 °F - 33.8 °F 66% 30.13 in 9.0 mi SSW 2.3 mph - N/A   Clear
4:00 AM 41.0 °F 38.0 °F 33.8 °F 76% 30.11 in 9.0 mi SW 4.6 mph - N/A   Clear
5:00 AM 46 °F - 35 °F 56% 30.09 in 9 mi SW 4.6 mph - -  
5:00 AM 46.4 °F 44.3 °F 35.6 °F 66% 30.09 in 9.0 mi SW 4.6 mph - N/A   Clear
6:00 AM 48.2 °F - 35.6 °F 62% 30.09 in 9.0 mi SSW 9.2 mph - N/A   Clear
7:00 AM 44.6 °F 40.7 °F 35.6 °F 71% 30.11 in 9.0 mi SW 6.9 mph - N/A   Clear
8:00 AM 51 °F - 36 °F 46% 30.11 in 9 mi SSW 5.8 mph - -  
8:00 AM 51.8 °F - 37.4 °F 58% 30.11 in 9.0 mi SSW 8.1 mph - N/A   Clear
9:00 AM 51.8 °F - 37.4 °F 58% 30.13 in 9.0 mi South 5.8 mph - N/A   Partly Cloudy
10:00 AM 55.4 °F - 37.4 °F 51% 30.15 in 9.0 mi South 2.3 mph - N/A   Partly Cloudy
11:00 AM 61 °F - 40 °F 35% 30.15 in 9 mi North 2.3 mph - -  
11:00 AM 60.8 °F - 41.0 °F 48% 30.15 in 9.0 mi North 4.6 mph - N/A   Partly Cloudy
12:00 PM 66.2 °F - 37.4 °F 35% 30.14 in 9.0 mi ENE 5.8 mph - N/A   Partly Cloudy
1:00 PM 68.0 °F - 37.4 °F 33% 30.13 in 9.0 mi East 4.6 mph - N/A   Partly Cloudy
2:00 PM 68 °F - 37 °F 21% 30.12 in 9 mi NE 2.3 mph - -  
2:00 PM 68.0 °F - 37.4 °F 33% 30.12 in 9.0 mi North 3.5 mph - N/A   Partly Cloudy
3:00 PM 71.6 °F - 37.4 °F 29% 30.10 in 9.0 mi ESE 2.3 mph - N/A   Partly Cloudy
4:00 PM 71.6 °F - 35.6 °F 27% 30.08 in 9.0 mi East 3.5 mph - N/A   Clear
5:00 PM 72 °F - 34 °F 15% 30.05 in 9 mi Calm Calm - -  
5:00 PM 71.6 °F - 33.8 °F 25% 30.05 in 9.0 mi Calm Calm - N/A   Clear
6:00 PM 66.2 °F - 39.2 °F 37% 30.04 in 9.0 mi NNE 2.3 mph - N/A   Clear
7:00 PM 57.2 °F - 37.4 °F 48% 30.06 in 9.0 mi Calm Calm - N/A   Clear
8:00 PM 53 °F - 34 °F 37% 30.06 in 9 mi North 4.6 mph - -  
8:00 PM 53.6 °F - 33.8 °F 47% 30.06 in 9.0 mi NNE 4.6 mph - N/A   Clear
9:00 PM 51.8 °F - 33.8 °F 50% 30.07 in 9.0 mi NNW 2.3 mph - N/A   Clear
10:00 PM 50.0 °F - 33.8 °F 54% 30.07 in 9.0 mi Calm Calm - N/A   Clear
11:00 PM 47 °F - 34 °F 49% 30.07 in 9 mi Calm Calm - -  
11:00 PM 48.2 °F - 33.8 °F 58% 30.07 in 9.0 mi Calm Calm - N/A   Clear